Weather History for Vancouver, BC

Change the Weather History Date:

Thursday, August 29, 2013

  Actual Average Record
Temperature  
Mean Temperature 66 °F -  
Max Temperature 69 °F 65 °F 78 °F (1996)
Min Temperature 59 °F 50 °F 51 °F (2010)
Growing Degree Days 16 (Base 50)    
Moisture  
Dew Point 63 °F    
Average Humidity 91    
Maximum Humidity 94    
Minimum Humidity 82    
Precipitation  
Precipitation 0.31 in 0.08 in - ()
Sea Level Pressure  
Sea Level Pressure 29.89 in    
Wind  
Wind Speed 8 mph ()    
Max Wind Speed 26 mph    
Max Gust Speed 34 mph    
Visibility 11.1 miles    
Events Rain , Thunderstorm    
Averages and records for this station are not official NWS values.
T = Trace of Precipitation, MM = Missing Value Source: Averaged Metar Reports

Daily Weather History Graph

Daily Weather History Graph

Search for Another Location

Airport:

Trip Planner

Search our weather history database for the weather conditions in past years. The results will help you decide how hot, cold, wet, or windy it might be!

Date:

Astronomy

Aug. 29, 2013 Rise Set
Actual Time 6:25 AM PDT 8:00 PM PDT
Civil Twilight 5:51 AM PDT 8:33 PM PDT
Nautical Twilight 5:11 AM PDT 9:14 PM PDT
Astronomical Twilight 4:26 AM PDT 9:58 PM PDT
Moon 12:04 AM PDT (8/29) 3:50 PM PDT (8/29)
Length of Visible Light 14h 42m
Length of Day
13h 35m
Last Quarter, 37% of the Moon is Illuminated
Aug 29
Last Quarter
Sep 5
New
Sep 12
First Quarter
Sep 19
Full
Sep 26
Last Quarter

Hourly Weather History & Observations

Time (PDT) Temp. Dew Point Humidity Pressure Visibility Wind Dir Wind Speed Gust Speed Precip Events Conditions
12:00 AM 64.4 °F 62.6 °F 94% 29.88 in 20.0 mi WNW 6.9 mph - N/A Rain Light Rain
1:00 AM 64.4 °F 62.6 °F 94% 29.89 in 15.0 mi NW 10.4 mph - N/A Rain Light Rain
2:00 AM 64.4 °F 62.6 °F 94% 29.89 in 15.0 mi NW 5.8 mph - N/A Rain Light Rain
3:00 AM 64.4 °F 62.6 °F 94% 29.89 in 15.0 mi NE 4.6 mph - N/A Rain Light Rain
3:08 AM 64.4 °F 62.6 °F 94% 29.88 in 15.0 mi NE 4.6 mph - N/A   Overcast
4:00 AM 64.4 °F 62.6 °F 94% 29.88 in 15.0 mi NE 6.9 mph - N/A   Overcast
5:00 AM 65 °F 63 °F 89% 29.87 in 15 mi ENE 8.1 mph - - Rain Light Rain
5:00 AM 64.4 °F 62.6 °F 94% 29.87 in 15.0 mi ENE 8.1 mph - N/A   Overcast
6:00 AM 64.4 °F 62.6 °F 94% 29.87 in 15.0 mi East 5.8 mph - N/A Rain Light Rain
6:26 AM 64.4 °F 62.6 °F 94% 29.87 in 12.0 mi ESE 10.4 mph - N/A Rain Light Rain
6:53 AM 64.4 °F 62.6 °F 94% 29.87 in 8.0 mi ESE 6.9 mph - N/A Rain Light Rain
7:00 AM 64.4 °F 62.6 °F 94% 29.87 in 6.0 mi ESE 8.1 mph - N/A Rain Light Rain
7:22 AM 64.4 °F 62.6 °F 94% 29.87 in 5.0 mi SE 6.9 mph - N/A Rain Rain
7:24 AM 64.4 °F 62.6 °F 94% 29.87 in 3.0 mi SE 6.9 mph - N/A Rain Heavy Rain
7:31 AM 64.4 °F 62.6 °F 94% 29.87 in 2.5 mi SE 9.2 mph - N/A Rain Rain
7:36 AM 64.4 °F 62.6 °F 94% 29.87 in 2.5 mi SSE 5.8 mph - N/A Rain Rain
7:40 AM 64.4 °F 62.6 °F 94% 29.87 in 5.0 mi SE 5.8 mph - N/A Rain Light Rain
8:00 AM 64.4 °F 62.6 °F 94% 29.87 in 5.0 mi SSE 10.4 mph - N/A Rain Light Rain
8:12 AM 64.4 °F 62.6 °F 94% 29.87 in 5.0 mi SE 9.2 mph - N/A Rain Light Rain
8:31 AM 64.4 °F 62.6 °F 94% 29.87 in 7.0 mi SSE 6.9 mph - N/A Rain Light Rain
9:00 AM 64.4 °F 62.6 °F 94% 29.87 in 8.0 mi SE 5.8 mph - N/A   Overcast
9:35 AM 66.2 °F 64.4 °F 94% 29.87 in 8.0 mi East 4.6 mph - N/A   Overcast
10:00 AM 66.2 °F 64.4 °F 94% 29.87 in 10.0 mi East 4.6 mph - N/A   Overcast
10:11 AM 66.2 °F 64.4 °F 94% 29.87 in 8.0 mi East 5.8 mph - N/A Rain Light Rain
10:14 AM 66.2 °F 64.4 °F 94% 29.87 in 8.0 mi East 5.8 mph - N/A Rain Light Rain
10:22 AM 66.2 °F 64.4 °F 94% 29.87 in 8.0 mi East 5.8 mph - N/A Rain Light Rain
10:30 AM 66.2 °F 64.4 °F 94% 29.87 in 8.0 mi East 5.8 mph - N/A Rain Light Rain
10:45 AM 68.0 °F 64.4 °F 88% 29.87 in 15.0 mi East 6.9 mph - N/A Rain Light Rain
11:00 AM 67 °F 65 °F 91% 29.87 in 15 mi East 8.1 mph - - Rain Light Rain
11:00 AM 68.0 °F 64.4 °F 88% 29.86 in 15.0 mi East 10.4 mph - N/A   Overcast
11:20 AM 68.0 °F 64.4 °F 88% 29.87 in 15.0 mi East 9.2 mph - N/A Rain Light Rain
11:55 AM 68.0 °F 64.4 °F 88% 29.88 in 6.0 mi ESE 9.2 mph - N/A Rain Light Rain
12:00 PM 66.2 °F 64.4 °F 94% 29.88 in 4.0 mi SE 8.1 mph - N/A Rain Rain
12:06 PM 66.2 °F 64.4 °F 94% 29.88 in 6.0 mi SE 6.9 mph - N/A Rain Light Rain
12:24 PM 66.2 °F 64.4 °F 94% 29.88 in 7.0 mi SE 9.2 mph - N/A Rain Light Rain
1:00 PM 66.2 °F 64.4 °F 94% 29.89 in 8.0 mi SE 9.2 mph - N/A Rain Light Rain
2:00 PM 66.2 °F 64.4 °F 94% 29.88 in 10.0 mi East 10.4 mph - N/A Rain Light Rain
3:00 PM 68.0 °F 64.4 °F 88% 29.91 in 15.0 mi SE 12.7 mph - N/A   Overcast
4:00 PM 69.8 °F 64.4 °F 83% 29.91 in 15.0 mi SE 13.8 mph - N/A   Overcast
4:26 PM 68.0 °F 62.6 °F 83% 29.92 in 15.0 mi SE 11.5 mph - N/A Rain Light Rain
5:00 PM 67 °F 63 °F 83% 29.92 in 12 mi ESE 11.5 mph - - Rain Light Rain
5:00 PM 66.2 °F 62.6 °F 88% 29.91 in 12.0 mi East 12.7 mph - N/A Rain Light Rain
5:53 PM 68.0 °F 62.6 °F 83% 29.91 in 15.0 mi East 8.1 mph - N/A   Overcast
6:00 PM 68.0 °F 62.6 °F 83% 29.91 in 15.0 mi East 10.4 mph - N/A   Overcast
7:00 PM 68.0 °F 64.4 °F 88% 29.90 in 15.0 mi East 11.5 mph - N/A   Overcast
8:00 PM 68.0 °F 62.6 °F 83% 29.88 in 15.0 mi ENE 6.9 mph - N/A   Overcast
8:54 PM 68.0 °F 62.6 °F 83% 29.90 in 15.0 mi SE 16.1 mph 23.0 mph N/A Rain Light Rain
9:00 PM 68.0 °F 62.6 °F 83% 29.90 in 15.0 mi SE 17.3 mph 24.2 mph N/A Rain Light Rain
9:54 PM 64.4 °F 62.6 °F 94% 29.91 in 15.0 mi SE 8.1 mph - N/A   Mostly Cloudy
10:00 PM 64.4 °F 62.6 °F 94% 29.91 in 15.0 mi SE 10.4 mph - N/A   Overcast
11:00 PM 64.4 °F 60.8 °F 88% 29.90 in 15.0 mi SSE 20.7 mph - N/A   Overcast
11:13 PM 64.4 °F 60.8 °F 88% 29.92 in 15.0 mi South 15.0 mph 20.7 mph N/A Rain , Thunderstorm Light Thunderstorms and Rain
11:20 PM 62.6 °F 57.2 °F 82% 29.94 in 8.0 mi SW 26.5 mph 34.5 mph N/A Rain , Thunderstorm Heavy Thunderstorms and Rain
11:47 PM 59.0 °F 57.2 °F 94% 29.94 in 10.0 mi East 10.4 mph - N/A Rain , Thunderstorm Light Thunderstorms and Rain